TimeMDT,TemperatureF,Dew PointF,Humidity,Sea Level PressureIn,VisibilityMPH,Wind Direction,Wind SpeedMPH,Gust SpeedMPH,PrecipitationIn,Events,Conditions,WindDirDegrees,DateUTC
12:53 AM,64.0,41.0,43,29.89,10.0,North,5.8,-,N/A,,Clear,10,2013-08-31 06:53:00
1:53 AM,64.9,41.0,42,29.88,10.0,North,6.9,-,N/A,,Clear,360,2013-08-31 07:53:00
2:53 AM,63.0,42.1,46,29.88,10.0,North,5.8,-,N/A,,Clear,360,2013-08-31 08:53:00
3:53 AM,62.1,42.1,48,29.88,10.0,NNE,5.8,-,N/A,,Clear,20,2013-08-31 09:53:00
4:53 AM,59.0,42.1,53,29.88,10.0,NE,5.8,-,N/A,,Clear,40,2013-08-31 10:53:00
5:53 AM,55.0,43.0,64,29.93,10.0,East,6.9,-,N/A,,Clear,80,2013-08-31 11:53:00
6:53 AM,57.0,43.0,59,29.94,10.0,ENE,6.9,-,N/A,,Clear,70,2013-08-31 12:53:00
7:53 AM,64.0,44.1,48,29.94,10.0,ENE,5.8,-,N/A,,Clear,60,2013-08-31 13:53:00
8:53 AM,73.0,45.0,37,29.92,10.0,ENE,3.5,-,N/A,,Clear,70,2013-08-31 14:53:00
9:53 AM,82.0,45.0,27,29.90,10.0,ENE,4.6,-,N/A,,Clear,70,2013-08-31 15:53:00
10:53 AM,86.0,45.0,24,29.88,10.0,Calm,Calm,-,N/A,,Clear,0,2013-08-31 16:53:00
11:53 AM,89.1,43.0,20,29.86,10.0,SSE,6.9,-,N/A,,Clear,160,2013-08-31 17:53:00
12:53 PM,91.0,39.0,16,29.84,10.0,South,10.4,-,N/A,,Clear,180,2013-08-31 18:53:00
1:53 PM,88.0,37.9,17,29.83,10.0,Variable,4.6,-,N/A,,Clear,0,2013-08-31 19:53:00
2:53 PM,93.0,37.0,14,29.80,10.0,NNW,8.1,-,N/A,,Clear,340,2013-08-31 20:53:00
3:53 PM,84.9,46.9,27,29.85,10.0,North,21.9,28.8,N/A,,Clear,10,2013-08-31 21:53:00
4:36 PM,82.4,48.2,30,30.16,10.0,NE,15.0,21.9,N/A,,Clear,50,2013-08-31 22:36:00
4:53 PM,82.0,45.0,27,29.88,10.0,East,17.3,-,N/A,,Clear,80,2013-08-31 22:53:00
5:53 PM,81.0,46.9,30,29.91,10.0,East,17.3,-,N/A,,Clear,100,2013-08-31 23:53:00
6:53 PM,79.0,46.9,32,29.90,10.0,SSE,15.0,23.0,N/A,,Clear,150,2013-09-01 00:53:00
7:53 PM,73.9,46.0,37,29.92,10.0,WNW,10.4,-,N/A,,Clear,290,2013-09-01 01:53:00
8:53 PM,72.0,46.9,41,29.91,10.0,NNW,10.4,-,N/A,,Scattered Clouds,340,2013-09-01 02:53:00
9:53 PM,73.9,46.0,37,29.88,10.0,NNE,8.1,-,N/A,,Overcast,30,2013-09-01 03:53:00
10:53 PM,70.0,53.1,55,29.90,10.0,East,5.8,-,0.00,Rain,Light Rain,90,2013-09-01 04:53:00
11:53 PM,71.1,50.0,47,29.89,10.0,NNE,15.0,20.7,0.00,,Overcast,30,2013-09-01 05:53:00